BSAT-3A

Last updated on Oct. 1, 2020, 5:42 a.m. UTC

1 32019U 07036B   20274.94216116 -.00000364  00000-0  00000+0 0  9999
2 32019   0.0387 206.4553 0004008   5.7935 246.9582  1.00271405 48155
UTC
Height (km)
Latitude
Longitude
Inclination
Orbital Period
UTC large
Height (km)
Speed (km/s)
/
Latitude / Longitude
Inclination (degrees)
Orbital Period (minutes)
Azimuth
Elevation
Range (km)
Doppler Factor
iOS Compass Heading
iOS Angle

Next 30 passes for location: Hong Kong

Rise time Rise Azimuth (degrees) Set time Set Azimuth (degrees) Duration Max altitude (degrees)

No matching passes for this satellites